This is the latest recevied weather packets stored in our database for station/object K3MV-13. If no packets are shown the sender has not sent any weather packets the latest 10 day(s).
| Time | Temp. | Humidity | Pressure | Rain* | Wind** | Luminosity | Snow |
|---|---|---|---|---|---|---|---|
| 1777396506 | 12.22° C | 85% | 1015.7 hPa | 0 mm | - | 83 W/m² | - |
| 1777396203 | 12.22° C | 85% | 1016 hPa | 0 mm | - | 77 W/m² | - |
| 1777395594 | 12.22° C | 86% | 1016 hPa | 0 mm | - | 97 W/m² | - |
| 1777391344 | 11.11° C | 87% | 1015.8 hPa | 0 mm | - | 146 W/m² | - |
| 1777390736 | 11.11° C | 87% | 1016 hPa | 0 mm | - | 116 W/m² | - |
| 1777389524 | 10.56° C | 87% | 1016 hPa | 0 mm | - | 74 W/m² | - |
| 1777389220 | 10.56° C | 87% | 1016.1 hPa | 0 mm | - | 66 W/m² | - |
| 1777388918 | 10.56° C | 87% | 1016.3 hPa | 0 mm | - | 124 W/m² | - |
| 1777385588 | 10° C | 88% | 1016 hPa | 0 mm | - | 72 W/m² | - |
| 1777384378 | 10° C | 89% | 1016 hPa | 0 mm | - | 52 W/m² | - |
| 1777384074 | 10° C | 88% | 1016.1 hPa | 0 mm | - | 58 W/m² | - |
| 1777383770 | 10° C | 89% | 1016.3 hPa | 0 mm | - | 71 W/m² | - |
| 1777383466 | 10° C | 89% | 1016.3 hPa | 0 mm | - | 85 W/m² | - |
| 1777383162 | 10° C | 89% | 1016.3 hPa | 0 mm | - | 100 W/m² | - |
| 1777382860 | 10° C | 89% | 1016.3 hPa | 0 mm | - | 78 W/m² | - |
| 1777382251 | 9.44° C | 89% | 1016.3 hPa | 0 mm | - | 89 W/m² | - |
| 1777381344 | 9.44° C | 89% | 1016.1 hPa | 0 mm | - | 127 W/m² | - |
| 1777379217 | 8.89° C | 90% | 1016.4 hPa | 0 mm | - | 28 W/m² | - |
| 1777378912 | 8.89° C | 91% | 1016.6 hPa | 0 mm | - | 27 W/m² | - |
| 1777378609 | 8.89° C | 91% | 1016.8 hPa | 0 mm | - | 17 W/m² | - |
| 1777378304 | 8.33° C | 92% | 1017 hPa | 0 mm | - | 13 W/m² | - |
| 1777378003 | 8.33° C | 92% | 1017 hPa | 0 mm | - | 10 W/m² | - |
| 1777377697 | 8.33° C | 92% | 1017.3 hPa | 0 mm | - | 5 W/m² | - |
| 1777377393 | 8.33° C | 91% | 1017.1 hPa | 0 mm | - | 5 W/m² | - |
| 1777377090 | 8.33° C | 91% | 1016.9 hPa | 1.27 mm | - | 8 W/m² | - |
* Rain latest hour (hover to see other rain measurements)
** Current wind speed in m/s (hover to see current wind gust speed)